This is the latest recevied weather packets stored in our database for station/object K4DNM. If no packets are shown the sender has not sent any weather packets the latest 10 day(s).
| Time | Temp. | Humidity | Pressure | Rain* | Wind** | Luminosity | Snow |
|---|---|---|---|---|---|---|---|
| 1778144987 | 18.89° C | 100% | 1009 hPa | 6.1 mm | - | 0 W/m² | - |
| 1778144682 | 18.89° C | 100% | 1009.1 hPa | 6.1 mm | - | 0 W/m² | - |
| 1778144370 | 18.89° C | 100% | 1009.2 hPa | 5.59 mm | - | 0 W/m² | - |
| 1778144070 | 18.89° C | 100% | 1009.2 hPa | 4.83 mm | - | 0 W/m² | - |
| 1778143769 | 18.89° C | 99% | 1009.4 hPa | 3.81 mm | - | 0 W/m² | - |
| 1778143470 | 18.89° C | 99% | 1009.6 hPa | 3.56 mm | - | 0 W/m² | - |
| 1778143170 | 18.89° C | 99% | 1009.7 hPa | 2.79 mm | - | 0 W/m² | - |
| 1778142870 | 18.89° C | 99% | 1009.7 hPa | 2.29 mm | - | 0 W/m² | - |
| 1778142568 | 18.89° C | 99% | 1009.7 hPa | 2.29 mm | - | 0 W/m² | - |
| 1778142268 | 18.89° C | 99% | 1009.6 hPa | 2.03 mm | - | 0 W/m² | - |
| 1778141967 | 18.89° C | 99% | 1009.6 hPa | 1.52 mm | - | 0 W/m² | - |
| 1778141668 | 18.89° C | 99% | 1008.8 hPa | 1.52 mm | - | 0 W/m² | - |
| 1778141368 | 18.89° C | 99% | 1009.4 hPa | 1.02 mm | - | 0 W/m² | - |
| 1778141067 | 18.89° C | 99% | 1009.7 hPa | 1.02 mm | - | 0 W/m² | - |
| 1778140768 | 18.89° C | 99% | 1009.8 hPa | 0.76 mm | - | 0 W/m² | - |
| 1778140468 | 18.89° C | 99% | 1009.9 hPa | 0.51 mm | - | 0 W/m² | - |
| 1778140168 | 18.89° C | 99% | 1010 hPa | 0.51 mm | - | 0 W/m² | - |
| 1778139869 | 18.89° C | 99% | 1009.9 hPa | 0.25 mm | - | 0 W/m² | - |
| 1778139568 | 18.89° C | 99% | 1009.6 hPa | 0 mm | - | 0 W/m² | - |
| 1778139268 | 18.89° C | 99% | 1009.8 hPa | 0 mm | - | 0 W/m² | - |
| 1778138968 | 18.89° C | 99% | 1010.1 hPa | 0 mm | - | 0 W/m² | - |
| 1778138668 | 18.89° C | 99% | 1009.8 hPa | 0 mm | - | 0 W/m² | - |
| 1778138424 | 18.89° C | 99% | 1009.8 hPa | 0 mm | - | 0 W/m² | - |
| 1778138124 | 18.89° C | 99% | 1010.1 hPa | 0 mm | - | 0 W/m² | - |
| 1778137764 | 18.89° C | 99% | 1010.4 hPa | 0 mm | - | 0 W/m² | - |
* Rain latest hour (hover to see other rain measurements)
** Current wind speed in m/s (hover to see current wind gust speed)